Regional Weather Roundup
Issued by NWS

Home | Current Version | Previous Version | Graphics & Text | Print | Product List | Glossary On
Versions: 1 2 3 4 5 6 7 8 9 10 11 12 13 14 15 16 17 18 19 20 21 22 23 24 25 26 27 28 29 30 31 32 33 34 35 36 37 38 39 40 41 42 43 44 45 46 47 48 49 50
529
ASUS44 KJAN 281103
RWRMS

MISSISSIPPI HOURLY WEATHER ROUNDUP
NATIONAL WEATHER SERVICE JACKSON MS
600 AM CDT MON JUL 28 2014

NOTE: "FAIR: INDICATES FEW OR NO CLOUDS BELOW 12,000 FEET WITH NO
SIGNIFICANT WEATHER AND/OR OBSTRUCTIONS TO VISIBILITY.

MSZ001>002-007>008-010>013-018>021-025>028-034>036-281200-
NORTHWEST MISSISSIPPI

CITY           SKY/WX    TMP DP  RH WIND       PRES   REMARKS
CLARKSDALE     FAIR      73  68  83 N9        30.02R
CLEVELAND      FAIR      76  74  94 N7        30.00R
GREENWOOD      CLEAR     76  74  93 CALM      29.99R
GREENVILLE     PTCLDY    78  73  84 N6        30.01R
GRENADA        FAIR      75  73  94 CALM      30.00R
OLIVE BRANCH   CLEAR     72  64  78 N8        30.04R
OXFORD         FAIR      75  64  69 N5        30.03R
TUNICA         SUNNY     72  64  78 N9        30.03S
$$

MSZ003>006-009-014>017-022>024-029>033-037>039-281200-
NORTHEAST MISSISSIPPI

CITY           SKY/WX    TMP DP  RH WIND       PRES   REMARKS
BELMONT        PTSUNNY   75  69  82 N7        29.99R
COLUMBUS AFB   CLOUDY    78  75  90 W3        29.97R
CORINTH        FAIR      72  64  78 NW3       30.01R
GOLDN TRIANGLE PTCLDY    79  72  78 NW5       29.98R
STARKVILLE     FAIR      79  73  83 W3        29.98R
TUPELO         PTCLDY    78  70  76 N10       29.98R
$$

MSZ040-058-281200-
CENTRAL MISSISSIPPI

CITY           SKY/WX    TMP DP  RH WIND       PRES   REMARKS
JACKSON INTL   PTCLDY    78  75  90 SW6       30.02R
JACKSON HAWKNS CLEAR     78  74  87 W6        30.03R
MERIDIAN KEY   CLEAR     76  73  91 CALM      30.01R
MERIDIAN NAS   PTCLDY    77  73  87 W6        30.00R
RAYMOND        FAIR      77  72  83 SW3       30.02S
VICKSBURG      CLEAR     78  75  90 VRB5      30.02R
$$

MSZ059>079-281200-
SOUTH MISSISSIPPI

CITY           SKY/WX    TMP DP  RH WIND       PRES   REMARKS
BROOKHAVEN     FAIR      77  75  94 SW8       30.06S
COLUMBIA       FAIR      77  75  94 VRB3      30.04R
HATTIESBURG    CLEAR     79  75  87 W3        30.05R
MCCOMB         PTCLDY    77  74  90 W7        30.06S
NATCHEZ        CLEAR     77  73  88 SW6       30.06R
PINE BELT      CLEAR     77  72  83 SW3       30.05R
$$

MSZ080>082-281200-
COASTAL MISSISSIPPI

CITY           SKY/WX    TMP DP  RH WIND       PRES   REMARKS
BILOXI         CLEAR     80  76  87 VRB5      30.04R
PASCAGOULA     CLEAR     79  76  90 W5        30.04R
GULFPORT       CLEAR     82  76  81 W5        30.04R
$$



USA.gov is the U.S. government's official web portal to all federal, state and local government web resources and services.